User: anonymous   Login
Location: Nelson
(41.2830°S, 173.2830°E)
Time: 04:07:22
(UTC+12:00)
Language:

Cosmos 2058 - Orbit

View from above orbital plane
View from above orbital plane
View from above satellite
View from above satellite

Ground track
Ground track

The orbit data is extracted from the following two-line orbital elements,

1 20465U 90010A   21208.07593609  .00000234  00000-0  17438-4 0  9995
2 20465  82.4874 243.9240 0013758 277.8413  82.1248 14.98242387710014
Epoch (UTC): 27 July 2021 01:49:20
Eccentricity: 0.0013758
inclination: 82.4874°
perigee height: 563 km
apogee height: 582 km
right ascension of ascending node: 243.9240°
argument of perigee: 277.8413°
revolutions per day: 14.98242387
mean anomaly at epoch: 82.1248°
orbit number at epoch: 71001

The dashed part of the orbit path shows where the satellite is in the earth's shadow,  

DLR